Tracking 30685 objects as of 18-Jun-2025
HD Live streaming from Space Station
objects crossing your sky now

COSMOS 375 DEB

Track COSMOS 375 DEB now!
10-day predictions


NORAD ID: 4724
Int'l Code: 1970-091V
Perigee: 483.5 km
Apogee: 1,158.4 km
Inclination: 62.8 °
Period: 101.2 minutes
Semi major axis: 7191 km
RCS: 0.2791 m2 (medium)
Launch date: October 30, 1970
Source: Commonwealth of Independent States (former USSR) (CIS)
Launch site: TYURATAM MISSILE AND SPACE COMPLEX (TTMTR)

Note: This is SATELLITE DEBRIS
Your satellite tracking list
Your tracking list is empty




NASA's NSSDC Master Catalog

Two Line Element Set (TLE):
1 04724U 70091V   25168.70391516  .00005532  00000-0  78274-3 0  9994
2 04724  62.7744 161.3524 0469219 110.9147 254.2791 14.23432000707165
Source of the keplerian elements: AFSPC